Weather History for Willimantic, CT

Change the Weather History Date:

Friday, November 4, 2011

  Actual Average Record
Temperature  
Mean Temperature 42 °F -  
Max Temperature 51 °F 58 °F 73 °F (1975)
Min Temperature 34 °F 36 °F 21 °F (1964)
Degree Days  
Heating Degree Days 22    
Moisture  
Dew Point 30 °F    
Average Humidity 65    
Maximum Humidity 100    
Minimum Humidity 33    
Precipitation  
Precipitation 0.00 in - - ()
Sea Level Pressure  
Sea Level Pressure 30.05 in    
Wind  
Wind Speed 4 mph (North)    
Max Wind Speed 15 mph    
Max Gust Speed 24 mph    
Visibility 8 miles    
Events      
Averages and records for this station are not official NWS values.
T = Trace of Precipitation, MM = Missing Value Source: NWS Daily Summary

Daily Weather History Graph

Daily Weather History Graph

Search for Another Location

Airport:

Trip Planner

Search our weather history database for the weather conditions in past years. The results will help you decide how hot, cold, wet, or windy it might be!

Date:

Astronomy

Nov. 04, 2011 Rise Set
Actual Time 7:24 AM EDT 5:39 PM EDT
Civil Twilight 6:55 AM EDT 6:08 PM EDT
Nautical Twilight 6:22 AM EDT 6:41 PM EDT
Astronomical Twilight 5:49 AM EDT 7:14 PM EDT
Moon 2:34 PM EDT (11/4) 1:28 AM EDT (11/4)
Length of Visible Light 11h 13m
Length of Day
10h 15m
Waxing Gibbous, 69% of the Moon is Illuminated
Nov 4
Waxing Gibbous
Nov 10
Full
Nov 18
Last Quarter
Nov 25
New
Dec 2
First Quarter

Hourly Weather History & Observations

Time (EDT) Temp. Windchill Dew Point Humidity Pressure Visibility Wind Dir Wind Speed Gust Speed Precip Events Conditions
12:52 AM 37.0 °F - 36.0 °F 96% 29.92 in 5.0 mi Calm Calm - N/A   Clear
1:52 AM 36.0 °F - 35.1 °F 97% 29.91 in 4.0 mi Calm Calm - N/A   Clear
2:52 AM 36.0 °F - 36.0 °F 100% 29.91 in 4.0 mi Calm Calm - N/A   Clear
3:52 AM 37.9 °F - 36.0 °F 93% 29.90 in 5.0 mi Calm Calm - N/A   Clear
4:52 AM 37.9 °F - 37.0 °F 97% 29.93 in 4.0 mi Calm Calm - N/A   Clear
5:52 AM 37.9 °F - 37.0 °F 97% 29.94 in 4.0 mi Calm Calm - N/A   Clear
6:52 AM 37.9 °F - 36.0 °F 93% 29.96 in 5.0 mi Calm Calm - N/A   Clear
7:52 AM 39.0 °F - 37.0 °F 93% 29.99 in 5.0 mi Calm Calm - N/A   Clear
8:52 AM 45.0 °F 41.2 °F 39.0 °F 80% 30.02 in 10.0 mi North 6.9 mph - N/A   Partly Cloudy
9:28 AM 44.6 °F 40.2 °F 37.4 °F 76% 30.02 in 10.0 mi North 8.1 mph - N/A   Overcast
9:52 AM 46.0 °F 41.4 °F 36.0 °F 68% 30.01 in 10.0 mi North 9.2 mph 20.7 mph N/A   Overcast
10:23 AM 46.4 °F 41.1 °F 33.8 °F 62% 30.02 in 10.0 mi North 11.5 mph 23.0 mph N/A   Scattered Clouds
10:52 AM 46.0 °F 41.9 °F 33.1 °F 61% 30.03 in 10.0 mi North 8.1 mph - N/A   Clear
11:52 AM 48.9 °F - 28.9 °F 46% 30.03 in 10.0 mi North 11.5 mph 20.7 mph N/A   Clear
12:52 PM 51.1 °F - 27.0 °F 39% 30.02 in 10.0 mi North 13.8 mph 21.9 mph N/A   Clear
1:52 PM 50.0 °F - 25.0 °F 38% 30.03 in 10.0 mi NNE 15.0 mph 23.0 mph N/A   Clear
2:52 PM 50.0 °F - 23.0 °F 35% 30.04 in 10.0 mi North 12.7 mph 20.7 mph N/A   Partly Cloudy
3:52 PM 50.0 °F - 21.9 °F 33% 30.05 in 10.0 mi North 12.7 mph 24.2 mph N/A   Partly Cloudy
4:52 PM 48.9 °F - 21.0 °F 33% 30.06 in 10.0 mi North 13.8 mph 23.0 mph N/A   Partly Cloudy
5:52 PM 46.9 °F - 19.9 °F 34% 30.11 in 10.0 mi North 10.4 mph 20.7 mph N/A   Clear
6:52 PM 45.0 °F 38.9 °F 21.0 °F 39% 30.16 in 10.0 mi North 12.7 mph - N/A   Clear
7:52 PM 42.1 °F 36.1 °F 23.0 °F 47% 30.19 in 10.0 mi North 10.4 mph - N/A   Clear
8:52 PM 39.9 °F 35.8 °F 23.0 °F 51% 30.22 in 10.0 mi North 5.8 mph - N/A   Clear
9:52 PM 37.0 °F 33.3 °F 23.0 °F 57% 30.25 in 10.0 mi North 4.6 mph - N/A   Clear
10:52 PM 34.0 °F 29.8 °F 24.1 °F 67% 30.26 in 10.0 mi North 4.6 mph - N/A   Clear
11:52 PM 34.0 °F - 24.1 °F 67% 30.27 in 10.0 mi Calm Calm - N/A   Clear